Regional Weather Roundup
Issued by NWS

Home | Current Version | Previous Version | Graphics & Text | Print | Product List | Glossary On
Versions: 1 2 3 4 5 6 7 8 9 10 11 12 13 14 15 16 17 18 19 20 21 22 23 24 25 26 27 28 29 30 31 32 33 34 35 36 37 38 39 40 41 42 43 44 45 46 47 48 49 50
124
ASUS43 KTOP 092059
RWRKS

WEATHER ROUNDUP FOR KANSAS
NATIONAL WEATHER SERVICE GOODLAND KS
300 PM CST TUE FEB 09 2016

NOTE:  "FAIR" INDICATES FEW OR NO CLOUDS BELOW 12,000 FEET WITH NO
SIGNIFICANT WEATHER AND/OR OBSTRUCTIONS TO VISIBILITY.

KSZ001>006-013>018-027>032-041>047-092200-
NORTHWEST KANSAS

CITY           SKY/WX    TMP DP  RH WIND       PRES   REMARKS
GOODLAND       CLOUDY    46  29  51 NW10      30.23F
HAYS           CLOUDY    37  16  41 N14       30.28S WCI  29
HILL CITY      CLOUDY    38  21  50 N5        30.28F
RUSSELL        CLOUDY    34  20  56 N15       30.28S WCI  24
$$

KSZ061>065-074>080-084>089-092200-
SOUTHWEST KANSAS

CITY           SKY/WX    TMP DP  RH WIND       PRES   REMARKS
DODGE CITY     SUNNY     46  19  34 N12G22    30.26F
ELKHART          N/A     60  24  25 NW21        N/A
GARDEN CITY    SUNNY     50  25  37 NW14      30.24F
GREAT BEND     CLOUDY    37  18  44 N14       30.28S WCI  29
LIBERAL        SUNNY     61  28  29 N17G28    30.26S
$$

KSZ066>073-081>083-090>101-092200-
SOUTHEAST KANSAS

CITY           SKY/WX    TMP DP  RH WIND       PRES   REMARKS
CHANUTE        CLOUDY    38   6  26 N17G28    30.21S WCI  28
COFFEYVILLE    SUNNY     41   9  26 NW23G33   30.23R
HUTCHINSON     CLOUDY    40  16  37 NW21G28   30.27F WCI  30
MEDICINE LODGE   N/A     48  19  31 NW15G25   30.27S
NEWTON         SUNNY     37  12  35 N26G36    30.27R WCI  26
PARSONS        SUNNY     40   8  26 NW24G33   30.22R WCI  29
WICHITA INTL   PTSUNNY   42  16  34 NW23G31   30.26S
WICHITA JABRA  SUNNY     40  14  34 NW21G29   30.26R WCI  30
WINFIELD       SUNNY     44  15  31 NW24G30   30.27R
$$

KSZ007>012-019>026-033>040-048>060-102>105-092200-
NORTHEAST KANSAS

CITY           SKY/WX    TMP DP  RH WIND       PRES   REMARKS
CONCORDIA      CLOUDY    31  11  43 N17G25    30.29F WCI  19
EMPORIA        CLOUDY    34   7  32 N23G32    30.24R WCI  22
LAWRENCE       SUNNY     31   5  33 NW23G32   30.22R WCI  18
MANHATTAN      CLOUDY    31   7  36 N10G28    30.29R WCI  22
OLATHE IND     SUNNY     29   5  36 NW22G35   30.20R WCI  15
OLATHE EXE     SUNNY     28   3  34 N20G30    30.19R WCI  15
SALINA         MOSUNNY   37  11  34 N24       30.30R WCI  26
TOPEKA BILLARD SUNNY     31   2  29 NW18G32   30.25R WCI  19
TOPEKA FORBES  SUNNY     32   6  33 NW21G32   30.23R WCI  20
$$




USA.gov is the U.S. government's official web portal to all federal, state and local government web resources and services.